Radiation Dose at Monitoring Post of Fukushima Daini Nuclear Power Station
Date,Time,MP-1(microSv/h),MP-2(microSv/h),MP-3(microSv/h),MP-4(microSv/h),MP-5(microSv/h),MP-6(microSv/h),MP-7(microSv/h),Wind Direction,Wind Velocity(m/s),Rain
2022/11/19,00:00,0.158,0.143,0.223,0.219,0.216,0.126,0.080,southwest,5.7,No
2022/11/19,00:10,0.158,0.143,0.224,0.218,0.218,0.126,0.079,southwest,6.3,No
2022/11/19,00:20,0.157,0.144,0.223,0.219,0.215,0.126,0.080,west-southwest,6.1,No
2022/11/19,00:30,0.159,0.144,0.223,0.217,0.217,0.126,0.080,southwest,7.8,No
2022/11/19,00:40,0.158,0.143,0.223,0.219,0.217,0.127,0.080,west-southwest,5.8,No
2022/11/19,00:50,0.158,0.144,0.222,0.219,0.215,0.126,0.080,southwest,5.1,No
2022/11/19,01:00,0.157,0.143,0.223,0.218,0.217,0.126,0.080,southwest,5.8,No
2022/11/19,01:10,0.157,0.144,0.223,0.218,0.215,0.126,0.081,southwest,6.6,Yes
2022/11/19,01:20,0.159,0.143,0.222,0.219,0.217,0.126,0.080,west-southwest,6.8,No
2022/11/19,01:30,0.157,0.143,0.223,0.218,0.217,0.126,0.080,west-southwest,6.5,No
2022/11/19,01:40,0.159,0.144,0.223,0.219,0.216,0.126,0.080,west-southwest,4.7,No
2022/11/19,01:50,0.158,0.143,0.223,0.218,0.217,0.126,0.080,west,2.1,No
2022/11/19,02:00,0.157,0.143,0.224,0.218,0.216,0.125,0.080,northwest,1.9,No
2022/11/19,02:10,0.158,0.143,0.222,0.218,0.218,0.127,0.080,northwest,2.8,No
2022/11/19,02:20,0.158,0.142,0.223,0.218,0.216,0.125,0.079,northwest,3.1,No
2022/11/19,02:30,0.158,0.143,0.223,0.219,0.217,0.127,0.080,north-northwest,3.0,No
2022/11/19,02:40,0.158,0.144,0.223,0.219,0.217,0.127,0.080,north-northwest,3.0,No
2022/11/19,02:50,0.158,0.144,0.223,0.217,0.217,0.127,0.079,north-northwest,3.1,No
2022/11/19,03:00,0.158,0.144,0.223,0.218,0.217,0.127,0.080,north-northwest,3.2,No
2022/11/19,03:10,0.158,0.144,0.224,0.218,0.217,0.127,0.080,northwest,3.8,No
2022/11/19,03:20,0.157,0.143,0.223,0.219,0.217,0.127,0.081,northwest,4.1,No
2022/11/19,03:30,0.158,0.144,0.225,0.218,0.218,0.126,0.081,northwest,4.7,No
2022/11/19,03:40,0.158,0.143,0.224,0.218,0.216,0.127,0.080,northwest,5.0,No
2022/11/19,03:50,0.158,0.144,0.223,0.217,0.217,0.126,0.080,northwest,4.0,No
2022/11/19,04:00,0.158,0.143,0.224,0.219,0.216,0.126,0.080,northwest,4.2,No
2022/11/19,04:10,0.159,0.143,0.223,0.218,0.217,0.126,0.080,northwest,2.6,No
2022/11/19,04:20,0.159,0.143,0.224,0.218,0.216,0.126,0.080,northwest,2.8,No
2022/11/19,04:30,0.158,0.144,0.222,0.218,0.216,0.127,0.080,west-northwest,2.4,No
2022/11/19,04:40,0.158,0.143,0.223,0.219,0.217,0.127,0.080,northwest,2.4,No
2022/11/19,04:50,0.159,0.143,0.224,0.218,0.218,0.127,0.080,northwest,2.4,No
2022/11/19,05:00,0.158,0.145,0.224,0.219,0.218,0.126,0.081,northwest,1.1,No
2022/11/19,05:10,0.158,0.144,0.223,0.219,0.217,0.127,0.079,north-northwest,2.6,No
2022/11/19,05:20,0.158,0.143,0.224,0.219,0.217,0.126,0.080,north-northwest,3.2,No
2022/11/19,05:30,0.159,0.144,0.223,0.219,0.217,0.127,0.081,north-northwest,3.5,No
2022/11/19,05:40,0.158,0.143,0.224,0.219,0.217,0.127,0.081,north-northwest,4.9,No
2022/11/19,05:50,0.159,0.144,0.223,0.219,0.218,0.128,0.080,north-northwest,5.3,No
2022/11/19,06:00,0.157,0.144,0.223,0.219,0.217,0.128,0.081,north-northwest,5.8,No
2022/11/19,06:10,0.157,0.144,0.224,0.219,0.216,0.126,0.080,north-northwest,5.6,No
2022/11/19,06:20,0.159,0.144,0.223,0.219,0.217,0.127,0.080,north-northwest,4.9,No
2022/11/19,06:30,0.158,0.145,0.223,0.219,0.216,0.126,0.081,north-northwest,4.3,No
2022/11/19,06:40,0.158,0.144,0.223,0.218,0.217,0.126,0.080,northwest,4.7,No
2022/11/19,06:50,0.158,0.143,0.224,0.220,0.217,0.127,0.080,northwest,5.3,No
2022/11/19,07:00,0.158,0.143,0.224,0.219,0.216,0.126,0.080,northwest,7.0,No
2022/11/19,07:10,0.158,0.144,0.222,0.218,0.216,0.126,0.081,northwest,5.8,No
2022/11/19,07:20,0.158,0.144,0.224,0.218,0.217,0.126,0.079,northwest,4.7,No
2022/11/19,07:30,0.159,0.144,0.223,0.218,0.216,0.127,0.080,northwest,4.1,No
2022/11/19,07:40,0.158,0.143,0.223,0.218,0.217,0.126,0.080,northwest,4.4,No
2022/11/19,07:50,0.159,0.144,0.225,0.218,0.216,0.127,0.079,northwest,4.4,No
2022/11/19,08:00,0.158,0.143,0.222,0.219,0.216,0.126,0.079,northwest,4.7,No
2022/11/19,08:10,0.159,0.143,0.223,0.219,0.217,0.126,0.080,northwest,4.1,No
2022/11/19,08:20,0.157,0.143,0.223,0.219,0.217,0.126,0.080,northwest,2.8,No
2022/11/19,08:30,0.158,0.143,0.223,0.218,0.216,0.126,0.080,northwest,3.3,No
2022/11/19,08:40,0.158,0.144,0.223,0.217,0.217,0.126,0.080,northwest,3.7,No
2022/11/19,08:50,0.158,0.144,0.224,0.218,0.216,0.125,0.080,northwest,2.8,No
2022/11/19,09:00,0.159,0.143,0.223,0.220,0.218,0.126,0.080,northwest,3.4,No
2022/11/19,09:10,0.158,0.144,0.222,0.218,0.216,0.126,0.080,north-northwest,3.5,No
2022/11/19,09:20,0.158,0.143,0.223,0.217,0.216,0.126,0.080,north-northwest,2.8,No
2022/11/19,09:30,0.158,0.143,0.222,0.217,0.217,0.126,0.081,north-northwest,1.7,No
2022/11/19,09:40,0.158,0.143,0.223,0.217,0.216,0.125,0.080,north,1.5,No
2022/11/19,09:50,0.157,0.143,0.224,0.218,0.216,0.125,0.080,north-northwest,1.9,No
2022/11/19,10:00,0.157,0.143,0.223,0.216,0.215,0.125,0.080,north-northwest,3.6,No
2022/11/19,10:10,0.159,0.143,0.224,0.218,0.217,0.126,0.080,north,4.0,No
2022/11/19,10:20,0.157,0.143,0.223,0.217,0.216,0.126,0.079,north-northwest,3.2,No
2022/11/19,10:30,0.158,0.144,0.223,0.219,0.216,0.126,0.080,north,3.8,No
2022/11/19,10:40,0.159,0.143,0.222,0.216,0.217,0.125,0.079,north-northwest,3.9,No
2022/11/19,10:50,0.157,0.143,0.223,0.220,0.214,0.127,0.080,north-northeast,3.1,No
2022/11/19,11:00,0.158,0.144,0.222,0.217,0.217,0.126,0.080,north-northeast,3.4,No
2022/11/19,11:10,0.157,0.143,0.222,0.219,0.216,0.126,0.080,north-northeast,3.5,No
2022/11/19,11:20,0.159,0.144,0.222,0.217,0.214,0.126,0.080,northeast,3.9,No
2022/11/19,11:30,0.157,0.142,0.223,0.218,0.217,0.126,0.079,north-northeast,4.1,No
2022/11/19,11:40,0.159,0.143,0.222,0.220,0.215,0.126,0.080,northeast,3.0,No
2022/11/19,11:50,0.158,0.143,0.223,0.217,0.216,0.126,0.080,northeast,3.8,No
2022/11/19,12:00,0.157,0.144,0.223,0.218,0.218,0.126,0.081,northeast,4.1,No
2022/11/19,12:10,0.158,0.143,0.223,0.217,0.215,0.125,0.080,northeast,3.2,No
2022/11/19,12:20,0.158,0.143,0.224,0.218,0.216,0.126,0.080,northeast,4.3,No
2022/11/19,12:30,0.158,0.142,0.223,0.218,0.217,0.126,0.080,north-northeast,3.8,No
2022/11/19,12:40,0.157,0.144,0.223,0.217,0.214,0.126,0.080,northeast,3.0,No
2022/11/19,12:50,0.158,0.143,0.224,0.220,0.218,0.126,0.080,northeast,4.8,No
2022/11/19,13:00,0.158,0.144,0.223,0.217,0.215,0.126,0.081,northeast,2.7,No
2022/11/19,13:10,0.157,0.144,0.224,0.218,0.218,0.126,0.080,northeast,3.1,No
2022/11/19,13:20,0.159,0.142,0.224,0.219,0.216,0.127,0.080,northeast,4.7,No
2022/11/19,13:30,0.158,0.144,0.222,0.217,0.216,0.126,0.080,north-northeast,4.8,No
2022/11/19,13:40,0.157,0.143,0.224,0.218,0.217,0.127,0.080,north-northeast,4.9,No
2022/11/19,13:50,0.158,0.144,0.224,0.220,0.215,0.126,0.080,north-northeast,4.0,No
2022/11/19,14:00,0.158,0.143,0.225,0.218,0.218,0.126,0.080,northeast,4.0,No
2022/11/19,14:10,0.158,0.144,0.224,0.219,0.216,0.126,0.081,north-northeast,4.4,No
2022/11/19,14:20,0.160,0.144,0.224,0.218,0.217,0.125,0.080,north-northeast,3.8,No
2022/11/19,14:30,0.159,0.144,0.224,0.220,0.217,0.126,0.080,north-northeast,3.6,No
2022/11/19,14:40,0.159,0.144,0.224,0.217,0.218,0.126,0.081,north-northeast,3.3,No
2022/11/19,14:50,0.158,0.144,0.225,0.219,0.217,0.126,0.080,north-northeast,3.2,No
2022/11/19,15:00,0.159,0.145,0.225,0.219,0.219,0.126,0.080,northeast,2.8,No
2022/11/19,15:10,0.158,0.144,0.224,0.220,0.215,0.126,0.080,north,3.2,No
2022/11/19,15:20,0.159,0.144,0.225,0.219,0.218,0.126,0.081,north,2.8,No
2022/11/19,15:30,0.159,0.144,0.224,0.221,0.217,0.126,0.080,north,2.3,No
2022/11/19,15:40,0.159,0.144,0.224,0.220,0.218,0.126,0.080,north,1.5,No
2022/11/19,15:50,0.159,0.144,0.225,0.219,0.218,0.126,0.080,north,0.6,No
2022/11/19,16:00,0.158,0.144,0.224,0.220,0.217,0.126,0.080,west-northwest,1.4,No
2022/11/19,16:10,0.159,0.144,0.224,0.219,0.218,0.126,0.080,north-northwest,2.3,No
2022/11/19,16:20,0.159,0.144,0.225,0.219,0.217,0.126,0.080,north,2.8,No
2022/11/19,16:30,0.157,0.143,0.225,0.220,0.218,0.127,0.081,north-northwest,2.9,No
2022/11/19,16:40,0.158,0.144,0.223,0.218,0.217,0.127,0.080,northwest,3.5,No
2022/11/19,16:50,0.159,0.144,0.225,0.219,0.217,0.126,0.080,northwest,3.7,No
2022/11/19,17:00,0.159,0.145,0.225,0.220,0.217,0.127,0.081,northwest,2.8,No
2022/11/19,17:10,0.159,0.144,0.224,0.218,0.217,0.127,0.080,northwest,3.2,No
2022/11/19,17:20,0.157,0.144,0.223,0.220,0.218,0.128,0.081,northwest,3.8,No
2022/11/19,17:30,0.158,0.144,0.225,0.219,0.218,0.127,0.080,north-northwest,3.5,No
2022/11/19,17:40,0.159,0.143,0.223,0.219,0.217,0.127,0.080,north-northwest,4.2,No
2022/11/19,17:50,0.157,0.145,0.224,0.219,0.218,0.126,0.079,northwest,4.1,No
2022/11/19,18:00,0.159,0.144,0.224,0.219,0.216,0.127,0.080,northwest,3.8,No
2022/11/19,18:10,0.158,0.144,0.225,0.219,0.216,0.126,0.081,north-northwest,3.8,No
2022/11/19,18:20,0.159,0.144,0.225,0.219,0.218,0.126,0.080,northwest,4.5,No
2022/11/19,18:30,0.159,0.145,0.224,0.220,0.217,0.126,0.080,northwest,5.0,No
2022/11/19,18:40,0.158,0.145,0.225,0.219,0.217,0.127,0.080,northwest,4.8,No
2022/11/19,18:50,0.159,0.144,0.225,0.219,0.217,0.127,0.080,north-northwest,5.1,No
2022/11/19,19:00,0.159,0.144,0.225,0.219,0.218,0.126,0.080,north-northwest,5.6,No
2022/11/19,19:10,0.159,0.145,0.225,0.221,0.217,0.127,0.081,north-northwest,6.2,No
2022/11/19,19:20,0.159,0.145,0.224,0.220,0.219,0.127,0.080,north-northwest,5.9,No
2022/11/19,19:30,0.160,0.143,0.225,0.220,0.218,0.128,0.081,north-northwest,6.2,No
2022/11/19,19:40,0.159,0.144,0.226,0.219,0.217,0.127,0.081,north-northwest,6.1,No
2022/11/19,19:50,0.159,0.144,0.224,0.220,0.218,0.127,0.080,north-northwest,6.2,No
2022/11/19,20:00,0.160,0.145,0.224,0.219,0.217,0.127,0.081,northwest,6.4,No
2022/11/19,20:10,0.159,0.144,0.225,0.220,0.217,0.126,0.081,north-northwest,6.0,No
2022/11/19,20:20,0.158,0.145,0.226,0.219,0.216,0.127,0.081,northwest,5.5,No
2022/11/19,20:30,0.159,0.145,0.224,0.219,0.218,0.127,0.081,north-northwest,6.0,No
2022/11/19,20:40,0.159,0.145,0.225,0.219,0.218,0.126,0.081,north-northwest,5.8,No
2022/11/19,20:50,0.159,0.145,0.225,0.220,0.218,0.127,0.081,northwest,5.6,No
2022/11/19,21:00,0.159,0.144,0.225,0.220,0.217,0.127,0.081,northwest,5.9,No
2022/11/19,21:10,0.159,0.144,0.225,0.220,0.217,0.127,0.081,north-northwest,6.6,No
2022/11/19,21:20,0.159,0.144,0.226,0.220,0.218,0.127,0.081,northwest,6.2,No
2022/11/19,21:30,0.159,0.145,0.225,0.220,0.217,0.127,0.081,northwest,6.0,No
2022/11/19,21:40,0.159,0.144,0.224,0.219,0.217,0.127,0.081,northwest,6.6,No
2022/11/19,21:50,0.160,0.144,0.225,0.220,0.217,0.128,0.081,northwest,6.3,No
2022/11/19,22:00,0.158,0.145,0.226,0.221,0.217,0.127,0.081,northwest,6.6,No
2022/11/19,22:10,0.159,0.145,0.223,0.220,0.216,0.127,0.081,northwest,6.6,No
2022/11/19,22:20,0.158,0.144,0.224,0.221,0.219,0.128,0.081,northwest,6.4,No
2022/11/19,22:30,0.159,0.144,0.225,0.220,0.218,0.128,0.081,northwest,6.5,No
2022/11/19,22:40,0.159,0.145,0.225,0.220,0.218,0.127,0.081,north-northwest,6.8,No
2022/11/19,22:50,0.159,0.145,0.225,0.220,0.217,0.127,0.081,northwest,6.3,No
2022/11/19,23:00,0.159,0.145,0.224,0.219,0.218,0.127,0.081,northwest,6.7,No
2022/11/19,23:10,0.159,0.145,0.225,0.220,0.219,0.127,0.081,northwest,6.4,No
2022/11/19,23:20,0.159,0.144,0.224,0.221,0.218,0.128,0.081,northwest,6.3,No
2022/11/19,23:30,0.159,0.145,0.226,0.220,0.219,0.128,0.081,north-northwest,6.5,No
2022/11/19,23:40,0.159,0.144,0.225,0.219,0.217,0.128,0.082,northwest,6.6,No
2022/11/19,23:50,0.160,0.145,0.224,0.221,0.217,0.127,0.081,northwest,7.0,No
